• Join FlightAware (Why Join?)
  • Login
  • US Flag 
02:14PM EDT


 

Airport Tracker/Info


-or-


 

Live Flight TrackerFlight Track Log ✈ UAL481 ✈ 13-Aug-2013 ✈ KALB - KORD

Flight Track Log - Related Links

Times and Time Zones

All times are in EDT time to prevent confusion due to time zone crossing. See the UAL481 flight status page for this flight to view local times or setup timezone preferences in your user account.

Time Position Orientation Groundspeed Altitude Reporting Facility
EDT Latitude Longitude Course Direction KTS MPH feet Rate Location/Type
06:33PM 42.7278 -73.8053 283° West 158 182 1,300  Level Boston Center
06:34PM 42.7200 -73.7458 100° East 224 258 3,000 2,220 Climbing Boston Center
06:35PM 42.7858 -73.6508 47° Northeast 285 328 6,500 2,880 Climbing Boston Center
06:36PM 42.8000 -74.1413 270° West  Level FlightAware Approximate
06:36PM 42.8472 -73.5586 48° Northeast 293 337 10,000  Level Boston Center
06:37PM 42.8195 -74.2572 284° West  Level FlightAware Approximate
06:37PM 42.9064 -73.4747 46° Northeast 316 364 11,200  Level Boston Center
06:38PM 42.8400 -74.3732 283° West  Level FlightAware Approximate
06:38PM 42.9989 -73.3769 38° Northeast 361 415 13,700  Level Boston Center
06:39PM 43.0839 -73.4208 339° North 312 359 15,800 2,280 Climbing Boston Center
06:40PM 43.1936 -73.4967 333° Northwest 362 417 18,400 2,220 Climbing Boston Center
06:41PM 43.2806 -73.5639 331° Northwest 389 448 20,300 1,800 Climbing Boston Center
06:42PM 43.3778 -73.6483 328° Northwest 400 460 22,000 1,740 Climbing Boston Center
06:43PM 43.4769 -73.7306 329° Northwest 407 468 23,800 1,320 Climbing Boston Center
06:44PM 43.5483 -73.8467 310° West 396 456 24,700 600 Climbing Boston Center
06:45PM 43.5386 -73.9694 264° West 370 426 25,100 1,260 Climbing Boston Center
06:46PM 43.5089 -74.1547 258° West 380 437 27,300 1,980 Climbing Boston Center
06:47PM 43.4856 -74.3031 258° West 390 449 29,100 1,680 Climbing Boston Center
06:48PM 43.4603 -74.4453 256° West 395 455 30,700 1,560 Climbing Boston Center
06:49PM 43.4389 -74.5906 259° West 390 449 32,200 1,500 Climbing Boston Center
06:50PM 43.4153 -74.7325 257° West 390 449 33,800 1,380 Climbing Boston Center
06:51PM 43.3917 -74.8689 257° West 384 442 35,100 1,140 Climbing Boston Center
06:52PM 43.3700 -74.9992 257° West 374 430 36,100 900 Climbing Boston Center
06:53PM 43.3436 -75.1525 257° West 369 425 37,000 900 Climbing Boston Center
06:54PM 43.3214 -75.2914 258° West 369 425 37,900 480 Climbing Boston Center
06:55PM 43.2969 -75.4272 256° West 377 434 38,000  Climbing Boston Center
06:56PM 43.2747 -75.5631 257° West 378 435 38,000  Level Boston Center
06:57PM 43.2522 -75.6931 257° West 370 426 38,000 -60 Level Boston Center
06:58PM 43.2297 -75.8286 257° West 370 426 37,900 -60 Descending Boston Center
06:59PM 43.2044 -75.9667 256° West 370 426 37,900  Level Boston Center
07:00PM 43.1794 -76.1050 256° West 375 432 38,000  Climbing Boston Center
07:01PM 43.1600 -76.2461 259° West 375 432 38,000 -60 Level Boston Center
07:03PM 43.1586 -76.4189 269° West 392 451 37,900 -60 Descending Cleveland Center
07:04PM 43.1594 -76.5614 271° West 387 445 37,900  Level Cleveland Center
07:05PM 43.1581 -76.7067 269° West 387 445 38,000  Climbing Cleveland Center
07:06PM 43.1586 -76.8461 270° West 387 445 38,000  Level Cleveland Center
07:07PM 43.1589 -76.9914 270° West 387 445 38,000  Level Cleveland Center
07:08PM 43.1569 -77.1336 269° West 387 445 38,000  Level Cleveland Center
07:09PM 43.1569 -77.2761 270° West 387 445 38,000  Level Cleveland Center
07:10PM 43.1547 -77.4214 269° West 387 445 38,000  Level Cleveland Center
07:11PM 43.1544 -77.5636 270° West 387 445 38,000  Level Cleveland Center
07:12PM 43.1519 -77.7089 269° West 387 445 38,000  Level Cleveland Center
07:13PM 43.1511 -77.8542 270° West 387 445 38,000  Level Cleveland Center
07:14PM 43.1486 -78.0164 269° West 387 445 38,000  Level Cleveland Center
07:15PM 43.1456 -78.1617 268° West 387 445 38,000  Level Cleveland Center
07:16PM 43.1444 -78.3097 269° West 387 445 38,000  Level Cleveland Center
07:17PM 43.1408 -78.4550 268° West 387 445 38,000  Level Cleveland Center
07:18PM 43.1333 -78.6500 267° West 380 437 38,000  Level Toronto Center
07:19PM 43.1167 -78.7833 260° West 370 426 38,000  Level Toronto Center
07:20PM 43.1167 -78.9333 270° West 360 414 38,000  Level Toronto Center
07:21PM 43.1167 -79.0667 270° West 360 414 38,000  Level Toronto Center
07:22PM 43.1167 -79.2000 270° West 360 414 38,000  Level Toronto Center
07:23PM 43.1000 -79.3333 260° West 370 426 38,000  Level Toronto Center
07:24PM 43.1000 -79.4667 270° West 370 426 38,000  Level Toronto Center
07:25PM 43.1000 -79.6333 270° West 370 426 38,000  Level Toronto Center
07:26PM 43.0833 -79.7500 259° West 370 426 38,000  Level Toronto Center
07:27PM 43.0833 -79.8833 270° West 360 414 38,000  Level Toronto Center
07:28PM 43.0833 -80.0500 270° West 380 437 38,000  Level Toronto Center
07:29PM 43.0667 -80.2000 261° West 390 449 38,000  Level Toronto Center
07:30PM 43.0667 -80.3333 270° West 390 449 38,000  Level Toronto Center
07:31PM 43.0667 -80.4833 270° West 390 449 38,000  Level Toronto Center
07:32PM 43.0500 -80.6333 261° West 390 449 38,000  Level Toronto Center
07:33PM 43.0500 -80.7667 270° West 390 449 38,000  Level Toronto Center
07:34PM 43.0333 -80.9333 262° West 390 449 38,000  Level Toronto Center
07:35PM 43.0167 -81.0667 260° West 390 449 38,000  Level Toronto Center
07:36PM 43.0167 -81.2333 270° West 390 449 38,000  Level Toronto Center
07:37PM 43.0167 -81.3667 270° West 390 449 38,000  Level Toronto Center
07:38PM 43.0167 -81.5333 270° West 390 449 38,000  Level Toronto Center
07:39PM 43.0167 -81.6667 270° West 390 449 38,000  Level Toronto Center
07:40PM 43.0167 -81.8167 270° West 390 449 38,000  Level Toronto Center
07:41PM 43.0000 -81.9667 261° West 390 449 38,000  Level Toronto Center
07:42PM 43.0000 -82.1167 270° West 390 449 38,000  Level Toronto Center
07:43PM 43.0000 -82.2500 270° West 400 460 38,000  Level Toronto Center
07:44PM 43.0000 -82.4167 270° West 400 460 38,000  Level Toronto Center
07:45PM 43.0000 -82.5667 270° West 400 460 38,000 -300 Level Toronto Center
07:46PM 42.9833 -82.7167 261° West 400 460 37,400 -720 Descending Toronto Center
07:47PM 42.9964 -82.8511 278° West 401 461 36,700 -960 Descending Cleveland Center
07:48PM 42.9933 -83.0017 268° West 406 467 35,700 -1,020 Descending Cleveland Center
07:49PM 42.9881 -83.1461 267° West 394 453 34,700 -960 Descending Cleveland Center
07:50PM 42.9831 -83.2850 267° West 383 441 33,800 -1,020 Descending Cleveland Center
07:51PM 42.9775 -83.4267 267° West 378 435 32,700 -1,020 Descending Cleveland Center
07:52PM 42.9717 -83.5683 267° West 378 435 31,800 -960 Descending Cleveland Center
07:53PM 42.9661 -83.7042 267° West 378 435 30,800 -900 Descending Cleveland Center
07:54PM 42.9558 -83.8456 264° West 378 435 30,000 -420 Descending Cleveland Center
07:55PM 42.9389 -84.0036 262° West 383 441 30,000  Level Cleveland Center
07:56PM 42.9283 -84.1447 264° West 388 447 30,000  Level Cleveland Center
07:58PM 42.9081 -84.3531 263° West 380 437 30,000  Level Chicago Center
07:59PM 42.8928 -84.4953 262° West 380 437 30,000  Level Chicago Center
08:00PM 42.8781 -84.6372 262° West 379 436 30,000  Level Chicago Center
08:01PM 42.8642 -84.7817 263° West 382 440 30,000  Level Chicago Center
08:02PM 42.8456 -84.9528 262° West 383 441 30,000  Level Chicago Center
08:03PM 42.8303 -85.0975 262° West 385 443 30,000 -420 Level Chicago Center
08:04PM 42.8144 -85.2422 262° West 387 445 29,200 -900 Descending Chicago Center
08:05PM 42.7989 -85.3883 262° West 388 447 28,200 -1,020 Descending Chicago Center
08:06PM 42.7803 -85.5328 260° West 388 447 27,200 -1,200 Descending Chicago Center
08:07PM 42.7542 -85.6783 256° West 392 451 25,800 -1,440 Descending Chicago Center
08:08PM 42.7275 -85.8214 256° West 390 449 24,300 -1,500 Descending Chicago Center
08:09PM 42.7033 -85.9608 257° West 379 436 22,800 -1,620 Descending Chicago Center
08:10PM 42.6722 -86.1261 256° West 374 430 21,000 -1,380 Descending Chicago Center
08:11PM 42.6469 -86.2636 256° West 372 428 20,000 -960 Descending Chicago Center
08:12PM 42.6217 -86.3964 256° West 366 421 19,100 -1,680 Descending Chicago Center
08:13PM 42.5964 -86.5294 256° West 364 419 16,600 -2,400 Descending Chicago Center
08:14PM 42.5719 -86.6583 256° West 354 407 14,200 -2,160 Descending Chicago Center
08:15PM 42.5456 -86.7886 255° West 358 412 12,200 -1,920 Descending Chicago Center
08:16PM 42.5025 -86.9392 249° West 359 413 10,300 -1,020 Descending Chicago Center
08:17PM 42.4678 -87.0628 249° West 354 407 10,200 -60 Descending Chicago Center
08:18PM 42.4336 -87.1839 249° West 348 400 10,200 -540 Level Chicago Center
08:19PM 42.4050 -87.2894 250° West 309 356 9,100 -1,200 Descending Chicago Center
08:20PM 42.3656 -87.3825 240° Southwest 290 334 7,800 -1,080 Descending Chicago Center
08:21PM 42.3214 -87.4850 240° Southwest 278 320 6,900 -480 Descending Chicago Center
08:22PM 42.2800 -87.5789 239° Southwest 278 320 6,900 -540 Level Chicago Center
08:23PM 42.2203 -87.6497 221° Southwest 285 328 5,900 -960 Descending Chicago Center
08:25PM 42.1633 -87.7136 220° Southwest 273 314 5,000 -1,080 Descending Chicago Center
08:25PM 42.1167 -87.7667 220° Southwest 237 273 4,000 -1,260 Descending Chicago TRACON
08:26PM 42.0833 -87.8167 228° Southwest 192 221 2,800 -1,140 Descending Chicago TRACON
08:27PM 42.0333 -87.8500 206° Southwest 164 189 1,600 -900 Descending Chicago TRACON
08:28PM 42.0000 -87.8833 217° Southwest 139 160 1,000 -720 Descending Chicago TRACON
08:31PM 41.9817 -87.9067 217° Southwest  Level Estimated